[[{"header":{"parameterUnit":"m.s-1","parameterCategory":1,"la1":30.2991,"la2":30.254,"lo1":-89.0895,"lo2":-89.0444,"dy":0.0017,"dx":0.0017,"nx":28,"ny":28,"refTime":"2024-05-21T21:00:00:Z","depth":0,"parameterNumber":2,"parameterNumberName":"U-component_of_WINDS"},"data":[0,0,0,0,0,0,0,0,0,0,0,0,0,0,0,0,0,0,0,0,0,0,0,0,0,0,0,0,0,0,0,0,0,0,0,0,0,0,0,0,0,0,0,0,0,0,0,0,0,0,0,0,0,0,0,0,0,0,-0.545,-0.545,0,-0.5426,-0.5425,-0.5425,-0.5412,-0.5412,-0.5412,-0.5412,-0.5387,-0.5386,-0.5385,0,0,0,0,0,0,0,0,0,0,0,0,0,-0.5487,-0.5487,-0.545,-0.545,-0.545,-0.5426,-0.5425,-0.5425,-0.5412,-0.5412,-0.5412,-0.5412,-0.5387,-0.5386,-0.5385,0,0,0,0,0,0,0,0,0,0,0,0,0,-0.5468,-0.5486,-0.545,-0.5441,-0.544,-0.5426,-0.5425,-0.5425,-0.5412,-0.5412,-0.5412,-0.5412,-0.5387,-0.5386,-0.5385,-0.5379,0,0,-0.5382,-0.5381,0,0,0,0,0,0,0,0,-0.5469,-0.5466,-0.5442,-0.5441,-0.544,-0.5422,-0.5429,-0.5409,-0.5412,-0.5423,-0.5412,-0.5412,-0.5398,-0.5396,-0.5392,-0.5378,-0.5377,-0.5382,-0.5381,-0.5381,-0.538,0,0,0,0,0,0,0,-0.547,-0.5467,-0.5441,-0.5442,-0.5441,-0.5438,-0.5435,-0.5425,-0.5411,-0.5422,-0.5421,-0.5418,-0.5398,-0.5393,-0.5391,-0.5376,-0.5382,-0.5381,-0.538,-0.538,-0.5356,-0.5356,0,0,0,0,0,0,-0.5473,-0.5469,-0.5441,-0.544,-0.5455,-0.5437,-0.5434,-0.5428,-0.5411,-0.5408,-0.5418,-0.5418,-0.5395,-0.5392,-0.539,-0.5382,-0.5381,-0.538,-0.5379,-0.5356,-0.5356,-0.5356,0,0,0,0,0,0,-0.5474,-0.5471,-0.5442,-0.5454,-0.545,-0.5436,-0.543,-0.5427,-0.5422,-0.5408,-0.5406,-0.5416,-0.5394,-0.5392,-0.5382,-0.5381,-0.5379,-0.5378,-0.5356,-0.5356,-0.5356,-0.5366,0,0,0,0,0,0,-0.5475,-0.5471,-0.5469,-0.5454,-0.545,-0.5435,-0.543,-0.5427,-0.5421,-0.542,-0.5405,-0.5403,-0.5394,-0.5384,-0.5381,-0.538,-0.5378,-0.5356,-0.5356,-0.5356,-0.5366,-0.5366,-0.5367,0,0,0,0,0,-0.5476,-0.5472,-0.5469,-0.5465,-0.5446,-0.5435,-0.5432,-0.5422,-0.5421,-0.5418,-0.5409,-0.5403,-0.5382,-0.5383,-0.538,-0.5378,-0.5356,-0.5356,-0.5356,-0.5365,-0.5366,-0.5367,0,0,0,0,0,0,-0.5487,-0.547,-0.5466,-0.5457,-0.5447,-0.5433,-0.5429,-0.5423,-0.5414,-0.5414,-0.5402,-0.5399,-0.539,-0.5383,-0.5385,-0.5371,-0.5368,-0.5368,-0.5376,-0.5377,-0.5377,-0.5379,-0.5377,0,0,0,0,0,-0.5488,-0.548,-0.5466,-0.5459,-0.5455,-0.5443,-0.5437,-0.5431,-0.542,-0.5416,-0.5406,-0.5397,-0.5388,-0.5382,-0.5373,-0.5365,-0.5361,-0.5362,-0.5362,-0.5363,-0.5363,-0.5358,-0.5358,-0.5356,-0.5356,-0.5356,0,0,-0.5491,-0.5481,-0.5476,-0.5461,-0.5453,-0.5445,-0.5439,-0.5431,-0.5425,-0.5415,-0.5405,-0.5398,-0.5386,-0.5377,-0.5373,-0.5371,-0.5362,-0.5363,-0.5363,-0.5363,-0.5358,-0.5358,-0.5358,-0.5356,-0.5356,-0.5356,0,0,-0.5491,-0.5483,-0.5476,-0.5468,-0.5456,-0.5448,-0.5447,-0.5433,-0.5428,-0.5418,-0.541,-0.5403,-0.5388,-0.538,-0.5374,-0.5372,-0.5366,-0.5369,-0.5372,-0.5368,-0.5368,-0.5368,-0.5368,-0.5368,-0.5369,-0.5369,-0.5369,0,-0.5496,-0.5484,-0.5474,-0.5466,-0.546,-0.5451,-0.5444,-0.5437,-0.5422,-0.5418,-0.5417,-0.5397,-0.5389,-0.5378,-0.5378,-0.5373,-0.5371,-0.5371,-0.5369,-0.5369,-0.5369,-0.5368,-0.5368,-0.5369,-0.5369,-0.5369,-0.5369,0,-0.549,-0.5482,-0.5478,-0.5465,-0.5458,-0.5451,-0.544,-0.5435,-0.5429,-0.5421,-0.5412,-0.5401,-0.539,-0.5387,-0.5381,-0.5375,-0.5375,-0.5371,-0.5368,-0.537,-0.5369,-0.5368,-0.537,-0.537,-0.537,-0.537,0,0,-0.5496,-0.5478,-0.5477,-0.547,-0.5457,-0.545,-0.5443,-0.5432,-0.5428,-0.5418,-0.5412,-0.5399,-0.5396,-0.5389,-0.5382,-0.5379,-0.5378,-0.5375,-0.5375,-0.5376,-0.5372,-0.5375,-0.5375,-0.5374,-0.5374,-0.5374,-0.5373,0,-0.5495,-0.5482,-0.5473,-0.5463,-0.5455,-0.5447,-0.544,-0.5431,-0.5424,-0.5417,-0.5409,-0.54,-0.5396,-0.5392,-0.5388,-0.5379,-0.5377,-0.5379,-0.5368,-0.5368,-0.5372,-0.5374,-0.5377,-0.5376,-0.5372,-0.5372,-0.5372,0,-0.5491,-0.5482,-0.5472,-0.5459,-0.5456,-0.5451,-0.544,-0.5433,-0.5423,-0.5418,-0.5411,-0.5404,-0.5396,-0.5394,-0.5383,-0.5384,-0.5379,-0.5374,-0.5374,-0.5373,-0.537,-0.5373,-0.5376,-0.5376,-0.5372,-0.5372,-0.5372,0,-0.5497,-0.5482,-0.5474,-0.5469,-0.5455,-0.5451,-0.5445,-0.5434,-0.5429,-0.5419,-0.5416,-0.5406,-0.54,-0.5393,-0.5384,-0.5383,-0.5374,-0.537,-0.5369,-0.537,-0.5368,-0.5368,-0.537,-0.5364,-0.5364,-0.5364,-0.5364,0,-0.5497,-0.5491,-0.5477,-0.5472,-0.5465,-0.5455,-0.5448,-0.5441,-0.5432,-0.5426,-0.5418,-0.5412,-0.54,-0.5393,-0.5385,-0.5377,-0.5375,-0.5371,-0.5369,-0.5371,-0.5372,-0.5368,-0.5368,-0.5364,-0.5364,-0.5364,-0.5364,0,-0.5502,-0.5492,-0.5483,-0.547,-0.5466,-0.5462,-0.5451,-0.5446,-0.5438,-0.543,-0.5428,-0.5416,-0.5407,-0.5397,-0.5385,-0.538,-0.5372,-0.537,-0.5376,-0.5375,-0.5374,-0.5375,-0.5374,-0.5373,-0.5368,-0.5368,-0.5369,0,-0.5502,-0.5497,-0.5484,-0.5479,-0.5473,-0.5465,-0.5459,-0.5449,-0.5444,-0.5432,-0.5428,-0.5419,-0.5411,-0.5397,-0.5387,-0.5378,-0.5375,-0.5375,-0.5373,-0.5376,-0.5375,-0.5375,-0.5375,-0.5376,-0.5376,-0.5376,-0.5376,0,-0.5503,-0.5499,-0.5491,-0.5482,-0.5475,-0.5467,-0.5459,-0.5455,-0.5444,-0.5438,-0.5429,-0.5423,-0.541,-0.5401,-0.5391,-0.5384,-0.5378,-0.5377,-0.5376,-0.5379,-0.5383,-0.5381,-0.5378,-0.5377,-0.5377,-0.5377,-0.5376,-0.5376,-0.5506,-0.5502,-0.5491,-0.5483,-0.5476,-0.5469,-0.5463,-0.5455,-0.5448,-0.5437,-0.5432,-0.5423,-0.5413,-0.5398,-0.5392,-0.5385,-0.5383,-0.5382,-0.5381,-0.5381,-0.5382,-0.5384,-0.5383,-0.5383,-0.5383,-0.5383,-0.5383,0,-0.5507,-0.55,-0.5493,-0.5482,-0.5475,-0.5471,-0.5461,-0.5456,-0.5449,-0.544,-0.5432,-0.5422,-0.5413,-0.5403,-0.5394,-0.539,-0.5387,-0.5388,-0.5388,-0.5386,-0.5384,-0.5386,-0.539,-0.539,-0.539,-0.539,-0.539,-0.539,-0.5507,-0.5499,-0.5494,-0.5483,-0.5476,-0.5467,-0.5463,-0.5456,-0.5449,-0.5438,-0.5431,-0.5424,-0.5415,-0.5405,-0.5397,-0.5394,-0.5391,-0.5392,-0.5389,-0.5387,-0.5386,-0.5386,-0.5387,-0.5392,-0.5392,-0.5392,-0.5392,-0.5392]},{"header":{"parameterUnit":"m.s-1","parameterCategory":1,"la1":30.2991,"la2":30.254,"lo1":-89.0895,"lo2":-89.0444,"dy":0.0017,"dx":0.0017,"nx":28,"ny":28,"refTime":"2024-05-21T21:00:00:Z","depth":0,"parameterNumber":3,"parameterNumberName":"V-component_of_WINDS"},"data":[0,0,0,0,0,0,0,0,0,0,0,0,0,0,0,0,0,0,0,0,0,0,0,0,0,0,0,0,0,0,0,0,0,0,0,0,0,0,0,0,0,0,0,0,0,0,0,0,0,0,0,0,0,0,0,0,0,0,1.4346,1.4346,0,1.4284,1.4283,1.4283,1.4217,1.4216,1.4215,1.4214,1.4149,1.4148,1.4147,0,0,0,0,0,0,0,0,0,0,0,0,0,1.4408,1.4407,1.4346,1.4346,1.4345,1.4284,1.4283,1.4282,1.4217,1.4216,1.4214,1.4213,1.4149,1.4148,1.4147,0,0,0,0,0,0,0,0,0,0,0,0,0,1.4367,1.4407,1.4346,1.4305,1.43,1.4284,1.4283,1.4282,1.4217,1.4216,1.4214,1.4213,1.4149,1.4148,1.4147,1.4167,0,0,1.4143,1.4142,0,0,0,0,0,0,0,0,1.437,1.4365,1.4312,1.4308,1.4303,1.4257,1.4281,1.4243,1.4217,1.4249,1.4214,1.4212,1.4186,1.4181,1.4173,1.4164,1.4161,1.4143,1.4142,1.4141,1.4141,0,0,0,0,0,0,0,1.4372,1.4367,1.4322,1.4311,1.4305,1.4289,1.4282,1.4274,1.4226,1.4246,1.4241,1.4234,1.4183,1.4174,1.4171,1.416,1.4143,1.4142,1.4141,1.414,1.4165,1.4166,0,0,0,0,0,0,1.4382,1.437,1.4324,1.432,1.4333,1.4289,1.4281,1.4273,1.4226,1.4217,1.4236,1.4232,1.4177,1.4172,1.4168,1.4189,1.4141,1.414,1.4139,1.4164,1.4165,1.4167,0,0,0,0,0,0,1.4383,1.4378,1.4326,1.4343,1.4336,1.4289,1.4281,1.4272,1.4263,1.4218,1.4209,1.4235,1.4176,1.417,1.4168,1.4186,1.414,1.4138,1.4162,1.4164,1.4166,1.423,0,0,0,0,0,0,1.4385,1.4379,1.4386,1.4344,1.4335,1.4327,1.4282,1.4272,1.4261,1.4255,1.4215,1.4207,1.4174,1.417,1.4167,1.4183,1.4137,1.416,1.4163,1.4165,1.4226,1.4234,1.4241,0,0,0,0,0,1.4388,1.4406,1.4387,1.4382,1.4343,1.4328,1.4323,1.4285,1.4263,1.427,1.4241,1.4209,1.4184,1.417,1.4166,1.4182,1.4159,1.4162,1.4165,1.4223,1.4233,1.4241,0,0,0,0,0,0,1.445,1.44,1.4378,1.4383,1.4361,1.4317,1.4324,1.4296,1.4279,1.4274,1.4227,1.4218,1.4222,1.4202,1.4187,1.4199,1.4167,1.417,1.4213,1.4221,1.4229,1.4234,1.4136,0,0,0,0,0,1.4465,1.4458,1.4414,1.4423,1.4412,1.4371,1.4363,1.4336,1.431,1.43,1.4271,1.4247,1.4234,1.4227,1.4212,1.4223,1.4214,1.4232,1.424,1.4246,1.4249,1.4254,1.4262,1.4178,1.4177,1.4177,0,0,1.4495,1.4466,1.4464,1.4435,1.4414,1.4407,1.4363,1.4357,1.4352,1.4299,1.4295,1.4274,1.4244,1.4249,1.425,1.4232,1.427,1.425,1.4256,1.4255,1.4258,1.4266,1.4274,1.418,1.4179,1.4179,0,0,1.4546,1.4523,1.4529,1.4509,1.4479,1.4451,1.4453,1.4414,1.4397,1.4393,1.4354,1.4347,1.4325,1.4306,1.4294,1.434,1.431,1.4336,1.4375,1.4381,1.4388,1.4393,1.441,1.4417,1.4339,1.4339,1.4339,0,1.4586,1.4575,1.4535,1.4533,1.4521,1.4473,1.4479,1.4462,1.4428,1.4421,1.4402,1.4376,1.4352,1.4353,1.4364,1.4355,1.4356,1.434,1.439,1.4395,1.44,1.4416,1.4422,1.4343,1.4342,1.4342,1.4342,0,1.4627,1.462,1.4628,1.4598,1.4587,1.4589,1.4549,1.4543,1.4517,1.4492,1.4489,1.446,1.4439,1.4437,1.4411,1.4434,1.4425,1.4399,1.4365,1.4412,1.4426,1.4432,1.4348,1.4347,1.4345,1.4345,0,0,1.4715,1.4663,1.4667,1.4653,1.4617,1.4611,1.4611,1.4591,1.4588,1.4566,1.4565,1.4549,1.4525,1.4511,1.4483,1.4488,1.4528,1.4462,1.446,1.4476,1.4553,1.4573,1.458,1.4508,1.4509,1.451,1.4555,0,1.476,1.4757,1.4721,1.4728,1.4722,1.4677,1.4677,1.4655,1.4632,1.4623,1.4597,1.4587,1.4555,1.4547,1.455,1.4523,1.4543,1.4519,1.4507,1.4507,1.4516,1.4588,1.4608,1.4653,1.4561,1.4561,1.4562,0,1.4811,1.4794,1.4801,1.4766,1.4762,1.4763,1.4743,1.4735,1.4709,1.4692,1.4678,1.4646,1.4644,1.4613,1.461,1.4594,1.4587,1.4573,1.4574,1.4571,1.4538,1.4588,1.4666,1.4673,1.457,1.457,1.4569,0,1.4876,1.4854,1.4856,1.4846,1.4804,1.4806,1.4789,1.4762,1.4753,1.4736,1.473,1.4712,1.4703,1.469,1.4655,1.4636,1.4656,1.4622,1.4642,1.4643,1.4648,1.4649,1.4727,1.4644,1.4644,1.4644,1.4644,0,1.493,1.4936,1.4885,1.4886,1.4892,1.4851,1.4858,1.4836,1.4813,1.481,1.477,1.4767,1.4721,1.4714,1.4686,1.4689,1.4684,1.4671,1.4663,1.4674,1.4676,1.4669,1.4665,1.4645,1.4645,1.4645,1.4644,0,1.5002,1.4968,1.4967,1.4929,1.4919,1.4926,1.4893,1.4892,1.4867,1.4863,1.486,1.482,1.4809,1.4773,1.4753,1.4735,1.4746,1.4731,1.4755,1.475,1.4773,1.4771,1.485,1.4858,1.477,1.477,1.4771,0,1.5039,1.5043,1.5005,1.5,1.4985,1.4978,1.4969,1.4929,1.4922,1.4894,1.4897,1.4883,1.487,1.4855,1.4825,1.481,1.4795,1.4824,1.4792,1.4804,1.4796,1.4797,1.4797,1.483,1.4831,1.4832,1.4833,0,1.5108,1.5091,1.508,1.5064,1.5054,1.5039,1.5022,1.502,1.4976,1.497,1.4958,1.4949,1.4929,1.4916,1.4896,1.4879,1.4849,1.4843,1.4847,1.4859,1.4872,1.4866,1.4774,1.4842,1.4841,1.484,1.484,1.4839,1.5164,1.5166,1.514,1.513,1.5113,1.5098,1.5096,1.5071,1.5061,1.5042,1.502,1.5012,1.4987,1.4958,1.4943,1.4936,1.492,1.4925,1.4927,1.4929,1.4935,1.4874,1.4932,1.4932,1.4932,1.4932,1.4931,0,1.5232,1.5214,1.5204,1.5182,1.5173,1.5147,1.5126,1.5121,1.5115,1.5095,1.5083,1.5071,1.5059,1.5028,1.5013,1.5014,1.5,1.5011,1.5011,1.5008,1.495,1.4948,1.5023,1.5023,1.5023,1.5023,1.5023,1.5023,1.5266,1.5268,1.5249,1.5243,1.5224,1.5216,1.5207,1.5194,1.5177,1.5166,1.5156,1.5136,1.5112,1.5095,1.5083,1.5074,1.5071,1.5087,1.5074,1.502,1.5012,1.5003,1.5002,1.5086,1.5086,1.5132,1.5133,1.5133]}]]